User: anonymous   Login
Location: Enborne
(51.3833°N, 1.3667°W)
Time: 01:46:29
(UTC+00:00)
Language:

Meteor 2-5 Rocket - Orbit

View from above orbital plane
View from above orbital plane
View from above satellite
View from above satellite

Ground track
Ground track

The orbit data is extracted from the following two-line orbital elements,

1 11608U 79095B   20328.57476430 -.00000019 +00000-0 -18742-4 0  9995
2 11608 081.2152 072.7161 0053436 234.8200 124.7957 14.06166007106262
Epoch (UTC): 23 November 2020 13:47:39
Eccentricity: 0.0053436
inclination: 81.2152°
perigee height: 834 km
apogee height: 911 km
right ascension of ascending node: 72.7161°
argument of perigee: 234.8200°
revolutions per day: 14.06166007
mean anomaly at epoch: 124.7957°
orbit number at epoch: 10626

The dashed part of the orbit path shows where the satellite is in the earth's shadow,  

DLR